Regional Weather Roundup
Issued by NWS Lake Charles, LA

Home | Current Version | Previous Version | Text Only | Print | Product List | Glossary On
Versions: 1 2 3 4 5 6 7 8 9 10 11 12 13 14 15 16 17 18 19 20 21 22 23 24 25 26 27 28 29 30 31 32 33 34 35 36 37 38 39 40 41 42 43 44 45 46 47 48 49 50
000
ASUS44 KLCH 250810
RWRLCH
REGIONAL WEATHER ROUNDUP
NATIONAL WEATHER SERVICE LAKE CHARLES LA
300 AM CDT MON JUL 25 2016

Note: "fair" indicates few or no clouds below 12,000 feet with no
significant weather and/or obstructions to visibility.


ACROSS SOUTHEAST TEXAS

CITY           SKY/WX    TMP DP  RH WIND       PRES   REMARKS
BEAUMONT       PTCLDY    79  77  94 CALM      29.92F
BEAUMONT CITY  FAIR      80  77  91 CALM      29.93F
ORANGE         MOSUNNY   78  76  93 CALM      29.94F FOG
JASPER         PTCLDY    75  73  91 CALM      29.96F
$$

ACROSS CENTRAL LOUISIANA

CITY           SKY/WX    TMP DP  RH WIND       PRES   REMARKS
LEESVILLE      MOCLDY    76  75  95 SW2       29.94S
FULLERTON      FAIR      75  73  93 CALM      29.92S FOG
ALEXANDRIA INT CLOUDY    75  74  96 N3        29.93S
ESLER FIELD    CLOUDY    75  75 100 CALM      29.94S
DERIDDER       NOT AVBL
OAKDALE        CLOUDY    73  73  98 CALM      29.93F FOG
OPELOUSAS      FAIR      76  76 100 CALM      29.93S
$$

ACROSS SOUTHWEST AND SOUTH CENTRAL LOUISIANA

CITY           SKY/WX    TMP DP  RH WIND       PRES   REMARKS
SULPHUR        PTSUNNY   80  78  94 CALM      29.93F
LAKE CHARLES   PTCLDY    78  76  93 CALM      29.92F
CHENNAULT INT  MOCLDY    76  75  96 CALM      29.93F
CAMERON PHI    MOSUNNY   84  77  79 CALM      29.91F
DEQUINCY       FAIR      74  73  96 CALM      29.94S
JENNINGS       FAIR      77  75  94 CALM      29.93F
LAFAYETTE      CLOUDY    79  77  94 CALM      29.92F
NEW IBERIA     CLOUDY    79  77  94 CALM      29.93F
ABBEVILLE      FAIR      76  76 100 CALM      29.93S
PATTERSON      CLOUDY    78  77  96 CALM      29.93F
SALT POINT       N/A     78  75  90 CALM      29.91F
$$

SELECTED SITES ACROSS THE REGION

CITY           SKY/WX    TMP DP  RH WIND       PRES   REMARKS
HOUSTON BUSH   CLOUDY    83  76  79 S3        29.93F
HOUSTON HOBBY  MOCLDY    82  76  81 CALM      29.92F
GALVESTON      CLEAR     84  77  79 S8        29.93F
COLLEGE STAT   LGT RAIN  82  76  81 S3        29.94F
CONROE         CLOUDY    81  76  84 SE3       29.94F
HUNTSVILLE     CLOUDY    77  73  87 CALM      29.95S
LUFKIN         CLOUDY    75  73  93 W3        29.94S
SHREVEPORT     PTCLDY    77  74  90 SE3       29.95S
MONROE         CLOUDY    76  76 100 N5        29.97S
NATCHEZ MS     PTCLDY    73  70  88 CALM      29.95S
BATON ROUGE    PTCLDY    76  73  91 NE3       29.94S
N.O. INTL ARPT MOCLDY    81  76  84 SE3       29.92F
SLIDELL        PTCLDY    75  74  96 N3        29.92F
$$

MARINE REPORTS

STATION/POSITION TIME  SKY/WX   TEMP    WIND        PRES    VSBY
                                AIR SEA DIR/SP/G
                 (UTC)          (F)     (DEG/KT/KT) (MB)    (MI)
BUOY 30 S HIGH I 0750            86 89  210/  8/ 10 1013.2F
WVE H/P(F/S)=  2/ 5

SEA RIM ST PARK  0800            85     210/  6/  8 1013.8F
PORT ARTHUR      0700               90  200/  4/  4 1013.8R
SABINE PASS N    0700            83 91  200/  4/  5 1014.8S
TEXAS POINT      NOT AVBL
CALCASIEU PASS   0700            86 89  220/  7/  9 1012.7F
LK CHARLES BEACH 0700            79 89              1014.1F
MARSH ISLAND     0700            86                   N/A
FRESH WATER LOCK 0700            82 89   CALM  /  3 1014.0F
AMERADA PASS     0700            79 86   70/  2/  4 1013.3F
$$



USA.gov is the U.S. government's official web portal to all federal, state and local government web resources and services.